KW0MSP Weather Reports


time (UTC)temp
C
wind
direction
speed
KPH
gust
KPH
rain 1hr
cm
rain 24hr
cm
rain mn
cm
humidity
%
barometer
mb
20260503003518 18 246 0.0 4.8 0.00 0.00 0.00 29 1010.7
20260503002515 18 219 3.2 8.0 0.00 0.00 0.00 28 1010.7
20260503001526 18 222 4.8 12.9 0.00 0.00 0.00 28 1010.7
20260503000523 18 301 4.8 20.9 0.00 0.00 0.00 26 1011.1
20260502235520 19 272 4.8 16.1 0.00 0.00 0.00 24 1011.0
20260502234516 19 274 3.2 12.9 0.00 0.00 0.00 23 1011.0
20260502233528 20 256 4.8 14.5 0.00 0.00 0.00 22 1011.0
20260502232525 20 243 4.8 14.5 0.00 0.00 0.00 22 1011.1
20260502231521 20 242 4.8 12.9 0.00 0.00 0.00 22 1011.1
20260502230518 20 270 3.2 14.5 0.00 0.00 0.00 23 1011.3
20260502225550 20 274 1.6 4.8 0.00 0.00 0.00 22 1011.4
20260502224526 19 231 3.2 9.7 0.00 0.00 0.00 22 1011.5
20260502223522 19 245 3.2 6.4 0.00 0.00 0.00 22 1011.7
20260502222519 20 238 6.4 17.7 0.00 0.00 0.00 21 1012.0
20260502221516 20 275 4.8 11.3 0.00 0.00 0.00 21 1011.9
20260502220547 20 230 6.4 14.5 0.00 0.00 0.00 21 1012.1
20260502215545 20 308 3.2 8.0 0.00 0.00 0.00 21 1012.3
20260502214521 20 252 8.0 22.5 0.00 0.00 0.00 21 1012.3
20260502213518 20 314 4.8 12.9 0.00 0.00 0.00 21 1012.5
20260502212530 20 285 4.8 16.1 0.00 0.00 0.00 20 1012.6
20260502211526 21 295 6.4 12.9 0.00 0.00 0.00 20 1012.9
20260502210522 21 282 4.8 17.7 0.00 0.00 0.00 20 1013.0
20260502205519 20 219 8.0 17.7 0.00 0.00 0.00 20 1013.3
20260502204516 20 202 6.4 16.1 0.00 0.00 0.00 21 1013.6
20260502203527 20 260 3.2 12.9 0.00 0.00 0.00 22 1013.7
20260502202524 20 265 6.4 17.7 0.00 0.00 0.00 21 1013.9
20260502201520 20 216 8.0 17.7 0.00 0.00 0.00 21 1014.3
20260502200532 20 224 8.0 24.1 0.00 0.00 0.00 20 1014.4
20260502195543 20 224 4.8 16.1 0.00 0.00 0.00 20 1014.6
20260502194519 19 267 4.8 9.7 0.00 0.00 0.00 22 1014.8
20260502193515 20 274 6.4 20.9 0.00 0.00 0.00 21 1015.1
20260502192527 20 241 6.4 17.7 0.00 0.00 0.00 20 1015.2
20260502191524 20 238 6.4 17.7 0.00 0.00 0.00 21 1015.5
20260502190521 19 225 6.4 12.9 0.00 0.00 0.00 22 1015.7
20260502185517 18 262 6.4 12.9 0.00 0.00 0.00 22 1015.9
20260502184529 18 289 6.4 22.5 0.00 0.00 0.00 23 1016.1
20260502183526 18 266 4.8 12.9 0.00 0.00 0.00 23 1016.3
20260502182543 18 282 4.8 11.3 0.00 0.00 0.00 22 1016.4
20260502181519 18 235 4.8 12.9 0.00 0.00 0.00 22 1016.6
20260502180536 18 250 9.7 20.9 0.00 0.00 0.00 22 1016.8
20260502163515 16 219 6.4 12.9 0.00 0.00 0.00 22 1018.0
20260502162547 16 300 3.2 12.9 0.00 0.00 0.00 20 1018.1
20260502161524 16 267 8.0 19.3 0.00 0.00 0.00 20 1018.2
20260502160520 16 313 8.0 14.5 0.00 0.00 0.00 21 1018.2
20260502151539 12 262 4.8 14.5 0.00 0.00 0.00 32 1018.4
20260502150555 12 289 3.2 9.7 0.00 0.00 0.00 31 1018.4
20260502130518 8 203 1.6 4.8 0.00 0.00 0.00 52 1018.6
20260502123521 3 270 0.0 4.8 0.00 0.00 0.00 64 1018.5
20260502122518 3 225 0.0 3.2 0.00 0.00 0.00 67 1018.5
20260502121530 2 0.0 0.0 0.00 0.00 0.00 67 1018.4
20260502120526 2 0.0 0.0 0.00 0.00 0.00 62 1018.4
20260502115523 1 0.0 0.0 0.00 0.00 0.00 62 1018.4
20260502114519 1 0.0 0.0 0.00 0.00 0.00 62 1018.4
20260502113516 1 0.0 0.0 0.00 0.00 0.00 62 1018.4
20260502112528 1 0.0 1.6 0.00 0.00 0.00 62 1018.3
20260502111544 1 0.0 0.0 0.00 0.00 0.00 60 1018.2
20260502110520 1 0.0 0.0 0.00 0.00 0.00 60 1018.2
20260502105516 1 0.0 0.0 0.00 0.00 0.00 59 1018.2
20260502104528 1 0.0 0.0 0.00 0.00 0.00 59 1018.2
20260502103525 1 0.0 0.0 0.00 0.00 0.00 58 1018.2
20260502102522 1 0.0 0.0 0.00 0.00 0.00 58 1018.1
20260502101518 1 0.0 0.0 0.00 0.00 0.00 58 1018.1
20260502100515 2 0.0 0.0 0.00 0.00 0.00 58 1018.0
20260502091528 2 0.0 0.0 0.00 0.00 0.00 59 1017.8
20260502090525 2 0.0 1.6 0.00 0.00 0.00 58 1017.8
20260502071518 3 0.0 0.0 0.00 0.00 0.00 54 1018.1
20260502070535 3 0.0 0.0 0.00 0.00 0.00 54 1018.1
20260502065526 3 0.0 0.0 0.00 0.00 0.00 53 1018.2
20260502064523 4 0.0 0.0 0.00 0.00 0.00 53 1018.3
20260502063520 4 0.0 0.0 0.00 0.00 0.00 52 1018.3
20260502062516 4 0.0 0.0 0.00 0.00 0.00 51 1018.3
20260502061528 4 0.0 0.0 0.00 0.00 0.00 51 1018.3
20260502060525 4 0.0 0.0 0.00 0.00 0.00 51 1018.3
20260502055521 4 0.0 0.0 0.00 0.00 0.00 50 1018.4
20260502054518 5 0.0 0.0 0.00 0.00 0.00 50 1018.3
20260502053514 5 0.0 0.0 0.00 0.00 0.00 50 1018.4
20260502052527 5 0.0 0.0 0.00 0.00 0.00 50 1018.3
20260502051523 5 0.0 0.0 0.00 0.00 0.00 50 1018.4
20260502050519 5 0.0 0.0 0.00 0.00 0.00 48 1018.3
20260502045516 5 0.0 0.0 0.00 0.00 0.00 46 1018.3
20260502044528 5 0.0 0.0 0.00 0.00 0.00 46 1018.3
20260502043525 5 0.0 0.0 0.00 0.00 0.00 45 1018.3
20260502042521 6 0.0 0.0 0.00 0.00 0.00 43 1018.3
20260502041518 6 0.0 0.0 0.00 0.00 0.00 42 1018.3
20260502040515 6 0.0 0.0 0.00 0.00 0.00 41 1018.3
20260502035526 6 0.0 0.0 0.00 0.00 0.00 40 1018.4
20260502034523 6 0.0 0.0 0.00 0.00 0.00 39 1018.4
20260502033520 6 0.0 0.0 0.00 0.00 0.00 39 1018.5
20260502032516 7 0.0 1.6 0.00 0.00 0.00 38 1018.5
20260502031528 7 0.0 0.0 0.00 0.00 0.00 37 1018.5
20260502030524 7 0.0 0.0 0.00 0.00 0.00 37 1018.4
20260502025541 7 0.0 0.0 0.00 0.00 0.00 35 1018.5
20260502024517 7 0.0 0.0 0.00 0.00 0.00 34 1018.4
20260502023529 7 0.0 0.0 0.00 0.00 0.00 33 1018.5
20260502022526 8 0.0 0.0 0.00 0.00 0.00 33 1018.5
20260502021522 8 0.0 0.0 0.00 0.00 0.00 32 1018.5
20260502020519 8 0.0 0.0 0.00 0.00 0.00 30 1018.4
20260502015516 9 0.0 0.0 0.00 0.00 0.00 30 1018.3
20260502014527 10 0.0 0.0 0.00 0.00 0.00 26 1018.2
20260502013524 10 0.0 0.0 0.00 0.00 0.00 25 1018.1
20260502012541 11 0.0 0.0 0.00 0.00 0.00 22 1018.2
20260502011517 11 0.0 1.6 0.00 0.00 0.00 23 1018.2
20260502010529 11 315 1.6 4.8 0.00 0.00 0.00 21 1018.2
20260502005546 11 28 1.6 4.8 0.00 0.00 0.00 22 1018.2
20260502004522 11 337 3.2 6.4 0.00 0.00 0.00 21 1018.2